WAT3630 SBGR-SGAS

Flight info

Callsign WAT3630
Flight time 1h 37m
Altitude 36000
Route ASETA UL301 DEVOS DEVOS
Aircraft A21N/M-SDE3FGHIRWY/LB1

Departure

Time 2026-04-24 22:23
Airport São Paulo/Guarulhos–Governor André Franco Montoro International Airport (SBGR)

Arrival

Time 2026-04-25 00:01
Airport Silvio Pettirossi International Airport (SGAS)
Time Latitude Longitude Altitude Speed Heading
2026-04-24 22:08 -23.42893 -46.48066 2447 ft 0 kts 84°
2026-04-24 22:16 -23.42894 -46.48077 2447 ft 2 kts 84°
2026-04-24 22:16 -23.42893 -46.48093 2447 ft 2 kts 113°
2026-04-24 22:17 -23.42885 -46.48107 2447 ft 2 kts 137°
2026-04-24 22:17 -23.42872 -46.48116 2447 ft 2 kts 164°
2026-04-24 22:17 -23.42864 -46.48117 2447 ft 1 kts 178°
2026-04-24 22:17 -23.42860 -46.48117 2447 ft 0 kts 174°
2026-04-24 22:20 -23.42864 -46.48117 2447 ft 0 kts 174°
2026-04-24 22:20 -23.42872 -46.48117 2447 ft 1 kts 176°
2026-04-24 22:20 -23.42890 -46.48116 2447 ft 5 kts 181°
2026-04-24 22:21 -23.42957 -46.48125 2447 ft 10 kts 189°
2026-04-24 22:21 -23.43033 -46.48135 2447 ft 11 kts 179°
2026-04-24 22:21 -23.43111 -46.48124 2447 ft 11 kts 171°
2026-04-24 22:21 -23.43189 -46.48107 2448 ft 10 kts 166°
2026-04-24 22:22 -23.43253 -46.48090 2450 ft 8 kts 166°
2026-04-24 22:22 -23.43306 -46.48075 2451 ft 7 kts 161°
2026-04-24 22:22 -23.43333 -46.48043 2452 ft 4 kts 97°
2026-04-24 22:22 -23.43333 -46.48004 2453 ft 8 kts 87°
2026-04-24 22:23 -23.43249 -46.47669 2453 ft 81 kts 73°
2026-04-24 22:23 -23.43021 -46.46833 2452 ft 144 kts 73°
2026-04-24 22:23 -23.42702 -46.45616 2502 ft 187 kts 76°
2026-04-24 22:23 -23.42352 -46.44228 3069 ft 189 kts 75°
2026-04-24 22:24 -23.41983 -46.42847 3720 ft 192 kts 73°
2026-04-24 22:24 -23.41566 -46.41458 4358 ft 192 kts 70°
2026-04-24 22:24 -23.41106 -46.40037 4740 ft 204 kts 69°
2026-04-24 22:24 -23.40625 -46.38556 5188 ft 211 kts 69°
2026-04-24 22:25 -23.40189 -46.36976 5560 ft 225 kts 78°
2026-04-24 22:25 -23.40229 -46.35206 5857 ft 245 kts 102°
2026-04-24 22:25 -23.40784 -46.33374 6158 ft 265 kts 110°
2026-04-24 22:25 -23.41478 -46.31467 6551 ft 281 kts 110°
2026-04-24 22:26 -23.42174 -46.29448 7167 ft 288 kts 109°
2026-04-24 22:26 -23.42909 -46.27412 7947 ft 291 kts 117°
2026-04-24 22:26 -23.44243 -46.25779 8625 ft 295 kts 147°
2026-04-24 22:26 -23.46135 -46.25017 9366 ft 295 kts 175°
2026-04-24 22:27 -23.48167 -46.25193 10098 ft 295 kts 193°
2026-04-24 22:27 -23.50205 -46.25661 10675 ft 303 kts 193°
2026-04-24 22:27 -23.52330 -46.26158 11023 ft 320 kts 196°
2026-04-24 22:27 -23.54381 -46.27189 11286 ft 334 kts 218°
2026-04-24 22:28 -23.55981 -46.29086 11536 ft 348 kts 240°
2026-04-24 22:28 -23.56837 -46.31593 11779 ft 361 kts 258°
2026-04-24 22:28 -23.57334 -46.34295 12110 ft 374 kts 259°
2026-04-24 22:28 -23.57852 -46.37095 12648 ft 379 kts 259°
2026-04-24 22:29 -23.58943 -46.42755 13849 ft 384 kts 258°
2026-04-24 22:29 -23.59500 -46.45589 14411 ft 386 kts 258°
2026-04-24 22:29 -23.60070 -46.48472 14961 ft 389 kts 258°
2026-04-24 22:30 -23.60632 -46.51344 15481 ft 392 kts 259°
2026-04-24 22:30 -23.61106 -46.54282 15998 ft 394 kts 261°
2026-04-24 22:30 -23.61542 -46.57223 16502 ft 396 kts 261°
2026-04-24 22:30 -23.61974 -46.60180 16979 ft 399 kts 262°
2026-04-24 22:31 -23.62508 -46.63164 17439 ft 402 kts 256°
2026-04-24 22:31 -23.63413 -46.66066 17921 ft 405 kts 249°
2026-04-24 22:31 -23.64681 -46.68803 18407 ft 408 kts 241°
2026-04-24 22:31 -23.66177 -46.71437 18904 ft 410 kts 239°
2026-04-24 22:32 -23.67704 -46.74064 19380 ft 411 kts 241°
2026-04-24 22:32 -23.68763 -46.76956 19786 ft 411 kts 258°
2026-04-24 22:32 -23.68927 -46.80030 20258 ft 411 kts 275°
2026-04-24 22:32 -23.68238 -46.83065 20702 ft 414 kts 291°
2026-04-24 22:33 -23.66782 -46.85793 21120 ft 417 kts 303°
2026-04-24 22:33 -23.65130 -46.88370 21534 ft 420 kts 303°
2026-04-24 22:33 -23.63443 -46.90997 21921 ft 422 kts 303°
2026-04-24 22:33 -23.61774 -46.93608 22306 ft 425 kts 303°
2026-04-24 22:34 -23.60080 -46.96270 22668 ft 428 kts 302°
2026-04-24 22:34 -23.58378 -46.98948 23031 ft 430 kts 302°
2026-04-24 22:34 -23.56664 -47.01650 23412 ft 432 kts 302°
2026-04-24 22:34 -23.54962 -47.04334 23775 ft 434 kts 302°
2026-04-24 22:35 -23.53246 -47.07036 24116 ft 436 kts 302°
2026-04-24 22:35 -23.51530 -47.09734 24452 ft 438 kts 302°
2026-04-24 22:35 -23.49781 -47.12483 24780 ft 440 kts 302°
2026-04-24 22:35 -23.48048 -47.15205 25099 ft 442 kts 302°
2026-04-24 22:36 -23.46281 -47.17981 25423 ft 444 kts 302°
2026-04-24 22:36 -23.44521 -47.20749 25722 ft 446 kts 302°
2026-04-24 22:36 -23.42751 -47.23529 26000 ft 448 kts 302°
2026-04-24 22:36 -23.40979 -47.26310 26309 ft 449 kts 302°
2026-04-24 22:37 -23.39189 -47.29111 26715 ft 447 kts 302°
2026-04-24 22:37 -23.37423 -47.31874 27125 ft 446 kts 302°
2026-04-24 22:37 -23.35668 -47.34616 27520 ft 444 kts 302°
2026-04-24 22:37 -23.33897 -47.37389 27882 ft 443 kts 302°
2026-04-24 22:38 -23.32151 -47.40123 28210 ft 443 kts 302°
2026-04-24 22:38 -23.30384 -47.42889 28546 ft 443 kts 302°
2026-04-24 22:38 -23.28638 -47.45619 28924 ft 442 kts 302°
2026-04-24 22:38 -23.26886 -47.48359 29307 ft 441 kts 302°
2026-04-24 22:39 -23.25148 -47.51075 29668 ft 440 kts 302°
2026-04-24 22:39 -23.23403 -47.53801 30025 ft 440 kts 302°
2026-04-24 22:39 -23.21717 -47.56570 30389 ft 437 kts 297°
2026-04-24 22:39 -23.20427 -47.59558 30749 ft 434 kts 288°
2026-04-24 22:40 -23.19599 -47.62680 31102 ft 431 kts 279°
2026-04-24 22:40 -23.19227 -47.65897 31438 ft 429 kts 271°
2026-04-24 22:40 -23.19314 -47.69113 31803 ft 427 kts 263°
2026-04-24 22:40 -23.19836 -47.72258 32170 ft 425 kts 256°
2026-04-24 22:41 -23.20551 -47.75375 32558 ft 423 kts 256°
2026-04-24 22:41 -23.21279 -47.78434 32926 ft 421 kts 255°
2026-04-24 22:41 -23.22011 -47.81512 33293 ft 420 kts 255°
2026-04-24 22:41 -23.22501 -47.83580 33535 ft 419 kts 256°
2026-04-24 22:42 -23.23462 -47.87659 33992 ft 417 kts 256°
2026-04-24 22:42 -23.24179 -47.90716 34317 ft 416 kts 256°
2026-04-24 22:42 -23.24893 -47.93771 34574 ft 416 kts 256°
2026-04-24 22:42 -23.25597 -47.96786 34805 ft 416 kts 256°
2026-04-24 22:43 -23.26312 -47.99849 35003 ft 417 kts 256°
2026-04-24 22:43 -23.27026 -48.02922 35202 ft 417 kts 256°
2026-04-24 22:43 -23.27737 -48.05981 35399 ft 417 kts 256°
2026-04-24 22:43 -23.28404 -48.09012 35580 ft 418 kts 258°
2026-04-24 22:44 -23.28943 -48.12138 35747 ft 419 kts 260°
2026-04-24 22:44 -23.29407 -48.15248 35912 ft 419 kts 260°
2026-04-24 22:44 -23.29870 -48.18396 36074 ft 419 kts 260°
2026-04-24 22:44 -23.30331 -48.21535 36079 ft 420 kts 260°
2026-04-24 22:45 -23.31249 -48.27808 36088 ft 419 kts 260°
2026-04-24 22:45 -23.32164 -48.34071 36089 ft 420 kts 260°
2026-04-24 22:46 -23.33150 -48.40295 36094 ft 420 kts 257°
2026-04-24 22:46 -23.34646 -48.46465 36098 ft 419 kts 253°
2026-04-24 22:47 -23.36325 -48.52508 36097 ft 419 kts 253°
2026-04-24 22:47 -23.38021 -48.58597 36095 ft 419 kts 253°
2026-04-24 22:48 -23.39698 -48.64634 36096 ft 418 kts 253°
2026-04-24 22:48 -23.41381 -48.70701 36100 ft 418 kts 253°
2026-04-24 22:49 -23.43051 -48.76729 36102 ft 418 kts 253°
2026-04-24 22:49 -23.44723 -48.82779 36103 ft 418 kts 254°
2026-04-24 22:50 -23.46397 -48.88853 36105 ft 418 kts 253°
2026-04-24 22:50 -23.48062 -48.94898 36105 ft 418 kts 253°
2026-04-24 22:51 -23.49735 -49.00980 36106 ft 418 kts 254°
2026-04-24 22:51 -23.51396 -49.07032 36106 ft 418 kts 254°
2026-04-24 22:52 -23.53054 -49.13079 36104 ft 418 kts 253°
2026-04-24 22:52 -23.54702 -49.19105 36099 ft 418 kts 254°
2026-04-24 22:53 -23.56365 -49.25190 36097 ft 417 kts 254°
2026-04-24 22:53 -23.58009 -49.31220 36101 ft 417 kts 254°
2026-04-24 22:54 -23.59649 -49.37244 36096 ft 417 kts 253°
2026-04-24 22:54 -23.61293 -49.43298 36092 ft 416 kts 253°
2026-04-24 22:55 -23.62933 -49.49345 36095 ft 416 kts 253°
2026-04-24 22:55 -23.64569 -49.55396 36092 ft 417 kts 254°
2026-04-24 22:56 -23.66199 -49.61450 36094 ft 417 kts 254°
2026-04-24 22:56 -23.67825 -49.67506 36096 ft 416 kts 254°
2026-04-24 22:57 -23.69447 -49.73547 36093 ft 417 kts 254°
2026-04-24 22:57 -23.71066 -49.79592 36090 ft 417 kts 254°
2026-04-24 22:58 -23.72692 -49.85672 36090 ft 415 kts 254°
2026-04-24 22:58 -23.74299 -49.91696 36085 ft 416 kts 254°
2026-04-24 22:59 -23.75919 -49.97772 36083 ft 416 kts 255°
2026-04-24 23:00 -23.78334 -50.06861 36084 ft 416 kts 254°
2026-04-24 23:00 -23.79942 -50.12923 36088 ft 416 kts 254°
2026-04-24 23:01 -23.81536 -50.18944 36090 ft 416 kts 254°
2026-04-24 23:01 -23.83138 -50.25005 36093 ft 416 kts 254°
2026-04-24 23:02 -23.84746 -50.31102 36094 ft 415 kts 255°
2026-04-24 23:02 -23.86332 -50.37126 36099 ft 415 kts 255°
2026-04-24 23:03 -23.87918 -50.43171 36105 ft 415 kts 255°
2026-04-24 23:03 -23.89507 -50.49222 36107 ft 414 kts 255°
2026-04-24 23:04 -23.91084 -50.55244 36109 ft 413 kts 255°
2026-04-24 23:04 -23.92666 -50.61301 36111 ft 413 kts 255°
2026-04-24 23:05 -23.94236 -50.67339 36112 ft 414 kts 255°
2026-04-24 23:05 -23.95806 -50.73388 36105 ft 414 kts 255°
2026-04-24 23:06 -23.97361 -50.79400 36099 ft 414 kts 255°
2026-04-24 23:06 -23.98924 -50.85440 36103 ft 414 kts 255°
2026-04-24 23:07 -24.00499 -50.91534 36109 ft 414 kts 255°
2026-04-24 23:07 -24.02060 -50.97597 36115 ft 414 kts 255°
2026-04-24 23:08 -24.03618 -51.03651 36116 ft 412 kts 256°
2026-04-24 23:08 -24.05162 -51.09665 36114 ft 412 kts 256°
2026-04-24 23:09 -24.06709 -51.15711 36110 ft 412 kts 255°
2026-04-24 23:09 -24.08253 -51.21745 36113 ft 413 kts 255°
2026-04-24 23:10 -24.09791 -51.27764 36100 ft 413 kts 255°
2026-04-24 23:10 -24.11323 -51.33784 36090 ft 412 kts 256°
2026-04-24 23:11 -24.12857 -51.39831 36080 ft 412 kts 256°
2026-04-24 23:11 -24.14392 -51.45892 36077 ft 413 kts 256°
2026-04-24 23:12 -24.15910 -51.51895 36070 ft 413 kts 256°
2026-04-24 23:12 -24.17436 -51.57940 36066 ft 411 kts 255°
2026-04-24 23:13 -24.18958 -51.63972 36067 ft 411 kts 256°
2026-04-24 23:13 -24.20471 -51.69997 36064 ft 411 kts 256°
2026-04-24 23:14 -24.21980 -51.76012 36070 ft 410 kts 256°
2026-04-24 23:14 -24.23498 -51.82062 36062 ft 411 kts 256°
2026-04-24 23:15 -24.25002 -51.88078 36056 ft 411 kts 256°
2026-04-24 23:15 -24.26510 -51.94109 36052 ft 410 kts 256°
2026-04-24 23:16 -24.28011 -52.00145 36053 ft 411 kts 256°
2026-04-24 23:16 -24.29503 -52.06151 36051 ft 410 kts 256°
2026-04-24 23:17 -24.30997 -52.12168 36060 ft 410 kts 256°
2026-04-24 23:17 -24.32490 -52.18204 36067 ft 410 kts 256°
2026-04-24 23:18 -24.33972 -52.24205 36077 ft 410 kts 256°
2026-04-24 23:18 -24.35461 -52.30250 36082 ft 410 kts 256°
2026-04-24 23:19 -24.36947 -52.36288 36086 ft 409 kts 256°
2026-04-24 23:19 -24.38423 -52.42300 36086 ft 409 kts 256°
2026-04-24 23:20 -24.39892 -52.48294 36086 ft 410 kts 256°
2026-04-24 23:20 -24.41366 -52.54346 36083 ft 410 kts 256°
2026-04-24 23:21 -24.42833 -52.60369 36080 ft 410 kts 256°
2026-04-24 23:21 -24.44302 -52.66412 36079 ft 409 kts 257°
2026-04-24 23:22 -24.45763 -52.72443 36073 ft 409 kts 257°
2026-04-24 23:22 -24.47122 -52.78469 36068 ft 409 kts 258°
2026-04-24 23:23 -24.48463 -52.84529 36063 ft 409 kts 258°
2026-04-24 23:23 -24.49807 -52.90598 36058 ft 409 kts 258°
2026-04-24 23:24 -24.51139 -52.96607 36050 ft 408 kts 258°
2026-04-24 23:24 -24.52479 -53.02662 36046 ft 409 kts 258°
2026-04-24 23:25 -24.53824 -53.08745 36044 ft 410 kts 258°
2026-04-24 23:25 -24.55158 -53.14796 36042 ft 408 kts 258°
2026-04-24 23:26 -24.56490 -53.20847 36047 ft 409 kts 258°
2026-04-24 23:26 -24.57831 -53.26945 36053 ft 409 kts 258°
2026-04-24 23:27 -24.59157 -53.32992 36049 ft 408 kts 258°
2026-04-24 23:27 -24.60482 -53.39052 36048 ft 408 kts 258°
2026-04-24 23:28 -24.61803 -53.45105 36044 ft 408 kts 258°
2026-04-24 23:28 -24.63119 -53.51140 36043 ft 407 kts 258°
2026-04-24 23:29 -24.64433 -53.57186 36041 ft 408 kts 258°
2026-04-24 23:29 -24.65744 -53.63227 36038 ft 408 kts 258°
2026-04-24 23:30 -24.67052 -53.69266 36034 ft 407 kts 259°
2026-04-24 23:30 -24.68355 -53.75294 36027 ft 407 kts 258°
2026-04-24 23:31 -24.69663 -53.81362 36020 ft 408 kts 258°
2026-04-24 23:31 -24.70970 -53.87435 36016 ft 408 kts 258°
2026-04-24 23:32 -24.72269 -53.93485 36014 ft 408 kts 258°
2026-04-24 23:32 -24.73567 -53.99536 36007 ft 408 kts 258°
2026-04-24 23:33 -24.74870 -54.05619 36002 ft 408 kts 259°
2026-04-24 23:33 -24.76161 -54.11674 35999 ft 407 kts 259°
2026-04-24 23:34 -24.77450 -54.17728 35999 ft 407 kts 259°
2026-04-24 23:34 -24.78740 -54.23798 35995 ft 407 kts 259°
2026-04-24 23:35 -24.80019 -54.29827 35993 ft 407 kts 259°
2026-04-24 23:35 -24.81299 -54.35873 35992 ft 406 kts 259°
2026-04-24 23:36 -24.82581 -54.41937 35991 ft 407 kts 259°
2026-04-24 23:36 -24.83856 -54.47951 35986 ft 406 kts 259°
2026-04-24 23:37 -24.85139 -54.54006 35980 ft 407 kts 259°
2026-04-24 23:37 -24.87058 -54.63107 35982 ft 407 kts 259°
2026-04-24 23:38 -24.88337 -54.69187 35981 ft 407 kts 259°
2026-04-24 23:38 -24.89605 -54.75217 35981 ft 407 kts 259°
2026-04-24 23:39 -24.99832 -55.39469 36186 ft 404 kts 268°
2026-04-24 23:39 -25.00733 -55.67527 35895 ft 405 kts 264°
2026-04-24 23:39 -25.01436 -55.70527 35943 ft 411 kts 252°
2026-04-24 23:40 -25.03339 -55.76437 35472 ft 409 kts 259°
2026-04-24 23:40 -25.03924 -55.79491 34595 ft 412 kts 262°
2026-04-24 23:40 -25.04425 -55.82633 33450 ft 420 kts 264°
2026-04-24 23:41 -25.04878 -55.85828 32291 ft 428 kts 264°
2026-04-24 23:41 -25.05302 -55.89048 31259 ft 433 kts 265°
2026-04-24 23:41 -25.05720 -55.92350 30323 ft 435 kts 264°
2026-04-24 23:41 -25.06129 -55.95637 29413 ft 437 kts 264°
2026-04-24 23:42 -25.06538 -55.98960 28494 ft 438 kts 264°
2026-04-24 23:42 -25.06941 -56.02248 27543 ft 439 kts 264°
2026-04-24 23:42 -25.07351 -56.05604 26499 ft 442 kts 264°
2026-04-24 23:42 -25.07761 -56.08979 25423 ft 445 kts 264°
2026-04-24 23:43 -25.08168 -56.12341 24559 ft 443 kts 264°
2026-04-24 23:43 -25.08572 -56.15684 23918 ft 437 kts 264°
2026-04-24 23:43 -25.08966 -56.18946 23345 ft 430 kts 264°
2026-04-24 23:43 -25.09356 -56.22175 22804 ft 424 kts 264°
2026-04-24 23:44 -25.09741 -56.25396 22259 ft 417 kts 264°
2026-04-24 23:44 -25.10117 -56.28543 21763 ft 412 kts 264°
2026-04-24 23:44 -25.10484 -56.31617 21209 ft 409 kts 264°
2026-04-24 23:44 -25.10853 -56.34724 20625 ft 406 kts 264°
2026-04-24 23:45 -25.11218 -56.37803 20007 ft 405 kts 264°
2026-04-24 23:45 -25.11583 -56.40871 19404 ft 403 kts 264°
2026-04-24 23:45 -25.11945 -56.43926 18784 ft 401 kts 264°
2026-04-24 23:45 -25.12301 -56.46938 18165 ft 399 kts 264°
2026-04-24 23:46 -25.12655 -56.49941 17551 ft 398 kts 264°
2026-04-24 23:46 -25.13012 -56.52973 16918 ft 396 kts 264°
2026-04-24 23:46 -25.13364 -56.55973 16324 ft 393 kts 264°
2026-04-24 23:46 -25.13656 -56.58918 15759 ft 389 kts 267°
2026-04-24 23:47 -25.13760 -56.61905 15190 ft 384 kts 271°
2026-04-24 23:47 -25.13672 -56.64807 14648 ft 380 kts 275°
2026-04-24 23:47 -25.13480 -56.67717 14073 ft 378 kts 276°
2026-04-24 23:47 -25.13279 -56.70605 13497 ft 376 kts 276°
2026-04-24 23:48 -25.13078 -56.73483 12935 ft 374 kts 276°
2026-04-24 23:48 -25.12882 -56.76302 12380 ft 372 kts 276°
2026-04-24 23:48 -25.12686 -56.79116 11821 ft 371 kts 276°
2026-04-24 23:48 -25.12488 -56.81952 11297 ft 367 kts 276°
2026-04-24 23:49 -25.12298 -56.84700 10999 ft 357 kts 276°
2026-04-24 23:49 -25.12110 -56.87394 10769 ft 345 kts 276°
2026-04-24 23:49 -25.11928 -56.89983 10602 ft 332 kts 276°
2026-04-24 23:49 -25.11756 -56.92450 10423 ft 320 kts 276°
2026-04-24 23:50 -25.11587 -56.94855 10239 ft 310 kts 276°
2026-04-24 23:50 -25.11423 -56.97179 10070 ft 299 kts 276°
2026-04-24 23:50 -25.11266 -56.99407 9932 ft 287 kts 276°
2026-04-24 23:50 -25.11109 -57.01613 9563 ft 285 kts 277°
2026-04-24 23:51 -25.10954 -57.03769 9188 ft 284 kts 277°
2026-04-24 23:51 -25.10799 -57.05938 8824 ft 282 kts 277°
2026-04-24 23:51 -25.10644 -57.08084 8457 ft 280 kts 277°
2026-04-24 23:51 -25.10493 -57.10206 8097 ft 278 kts 277°
2026-04-24 23:52 -25.10341 -57.12333 7739 ft 276 kts 277°
2026-04-24 23:52 -25.10191 -57.14414 7386 ft 275 kts 277°
2026-04-24 23:52 -25.10040 -57.16512 7036 ft 273 kts 277°
2026-04-24 23:52 -25.09890 -57.18596 6722 ft 270 kts 277°
2026-04-24 23:53 -25.09743 -57.20631 6401 ft 268 kts 277°
2026-04-24 23:53 -25.09595 -57.22676 6072 ft 266 kts 277°
2026-04-24 23:53 -25.09448 -57.24693 5742 ft 265 kts 277°
2026-04-24 23:53 -25.09300 -57.26707 5409 ft 263 kts 277°
2026-04-24 23:54 -25.09154 -57.28698 5087 ft 262 kts 276°
2026-04-24 23:54 -25.09009 -57.30700 4754 ft 260 kts 276°
2026-04-24 23:54 -25.08864 -57.32696 4428 ft 259 kts 276°
2026-04-24 23:54 -25.08721 -57.34654 4112 ft 258 kts 276°
2026-04-24 23:55 -25.08603 -57.36623 3790 ft 257 kts 275°
2026-04-24 23:55 -25.08522 -57.38545 3635 ft 247 kts 274°
2026-04-24 23:55 -25.08449 -57.40392 3600 ft 233 kts 275°
2026-04-24 23:55 -25.08376 -57.42145 3554 ft 224 kts 275°
2026-04-24 23:56 -25.08302 -57.43830 3489 ft 216 kts 275°
2026-04-24 23:56 -25.08232 -57.45435 3352 ft 203 kts 275°
2026-04-24 23:56 -25.08336 -57.46927 3129 ft 196 kts 251°
2026-04-24 23:56 -25.09187 -57.48061 2909 ft 188 kts 213°
2026-04-24 23:57 -25.10361 -57.48612 2679 ft 181 kts 198°
2026-04-24 23:57 -25.11564 -57.48930 2417 ft 172 kts 193°
2026-04-24 23:57 -25.12684 -57.49176 2183 ft 157 kts 192°
2026-04-24 23:57 -25.13736 -57.49416 1945 ft 152 kts 193°
2026-04-24 23:58 -25.14761 -57.49661 1758 ft 150 kts 193°
2026-04-24 23:58 -25.14814 -57.49674 1749 ft 150 kts 193°
2026-04-24 23:58 -25.15537 -57.49851 1617 ft 150 kts 193°
2026-04-24 23:59 -25.16566 -57.50104 1422 ft 149 kts 193°
2026-04-24 23:59 -25.17580 -57.50353 1231 ft 149 kts 193°
2026-04-24 23:59 -25.18589 -57.50598 1040 ft 149 kts 192°
2026-04-24 23:59 -25.19611 -57.50841 846 ft 148 kts 192°
2026-04-25 00:00 -25.20622 -57.51083 655 ft 148 kts 193°
2026-04-25 00:00 -25.21623 -57.51356 473 ft 147 kts 192°
2026-04-25 00:00 -25.22621 -57.51598 297 ft 145 kts 192°
2026-04-25 00:00 -25.23573 -57.51829 268 ft 125 kts 189°
2026-04-25 00:01 -25.24257 -57.51976 278 ft 75 kts 191°
2026-04-25 00:01 -25.24600 -57.52068 283 ft 31 kts 191°
2026-04-25 00:01 -25.24804 -57.52116 286 ft 27 kts 193°
2026-04-25 00:01 -25.24975 -57.52157 290 ft 23 kts 191°
2026-04-25 00:02 -25.25123 -57.52188 293 ft 20 kts 191°
2026-04-25 00:02 -25.25255 -57.52218 296 ft 17 kts 191°
2026-04-25 00:02 -25.25367 -57.52244 298 ft 15 kts 192°
2026-04-25 00:02 -25.25455 -57.52227 301 ft 11 kts 123°
2026-04-25 00:03 -25.25480 -57.52153 304 ft 8 kts 106°
2026-04-25 00:03 -25.25484 -57.52095 306 ft 7 kts 76°
2026-04-25 00:03 -25.25423 -57.52046 306 ft 18 kts 18°
2026-04-25 00:03 -25.25251 -57.52004 302 ft 32 kts 12°
2026-04-25 00:04 -25.25024 -57.51950 297 ft 33 kts 10°
2026-04-25 00:04 -25.24799 -57.51893 291 ft 32 kts 14°
2026-04-25 00:04 -25.24583 -57.51838 288 ft 31 kts 11°
2026-04-25 00:04 -25.24422 -57.51791 286 ft 13 kts 40°
2026-04-25 00:05 -25.24366 -57.51715 287 ft 12 kts 56°
2026-04-25 00:05 -25.24281 -57.51657 287 ft 16 kts 20°
2026-04-25 00:05 -25.24232 -57.51575 291 ft 5 kts 98°
2026-04-25 00:05 -25.24236 -57.51551 293 ft 0 kts 101°